Weather History for LTCD - October, 2012

Change the Weather History Date:

Tuesday, October 2, 2012

  Actual Average Record
Temperature  
Mean Temperature 65 °F -  
Max Temperature 86 °F 66 °F - ()
Min Temperature 44 °F 40 °F - ()
Growing Degree Days 15 (Base 50)    
Moisture  
Dew Point 36 °F    
Average Humidity 37    
Maximum Humidity 76    
Minimum Humidity 7    
Precipitation  
Precipitation 0.00 in 0.05 in - ()
Sea Level Pressure  
Sea Level Pressure 30.21 in    
Wind  
Wind Speed 1 mph ()    
Max Wind Speed 5 mph    
Max Gust Speed -    
Visibility 6.9 miles    
Events      
T = Trace of Precipitation, MM = Missing Value Source: Averaged Metar Reports

Daily Weather History Graph

Daily Weather History Graph

Search for Another Location

Airport or City:

Trip Planner

Search our weather history database for the weather conditions in past years. The results will help you decide how hot, cold, wet, or windy it might be!

Date:

Astronomy

Oct. 02, 2012 Rise Set
Actual Time 6:19 AM EEST 6:02 PM EEST
Civil Twilight 5:52 AM EEST 6:29 PM EEST
Nautical Twilight 5:21 AM EEST 7:00 PM EEST
Astronomical Twilight 4:49 AM EEST 7:31 PM EEST
Moon 7:02 PM EEST (10/2) 8:25 AM EEST (10/2)
Length of Visible Light 12h 37m
Length of Day
11h 43m
Waning Gibbous, 95% of the Moon is Illuminated
Oct 2
Waning Gibbous
Oct 8
Last Quarter
Oct 15
New
Oct 22
First Quarter
Oct 29
Full

Hourly Weather History & Observations

Time (EEST) Temp. Dew Point Humidity Pressure Visibility Wind Dir Wind Speed Gust Speed Precip Events Conditions
12:50 AM 50.0 °F 39.2 °F 66% 30.27 in - SE 2.3 mph - N/A   Clear
3:00 AM 50 °F 37 °F 51%  in 6 mi Calm Calm - -  
3:50 AM 50.0 °F 37.4 °F 62% 30.27 in - Variable 1.2 mph - N/A   Clear
4:50 AM 48.2 °F 37.4 °F 66% 30.27 in - Variable 1.2 mph - N/A   Clear
5:50 AM 46.4 °F 37.4 °F 71% 30.27 in - Variable 1.2 mph - N/A   Clear
6:50 AM 44.6 °F 37.4 °F 76% 30.27 in - Calm Calm - N/A   Clear
9:00 AM 62 °F 30 °F 18%  in 12 mi Calm Calm - -   Scattered Clouds
9:50 AM 66.2 °F 33.8 °F 30% 30.27 in - Variable 1.2 mph - N/A   Clear
10:50 AM 71.6 °F 33.8 °F 25% 30.27 in - Variable 1.2 mph - N/A   Clear
11:50 AM 77.0 °F 30.2 °F 18% 30.24 in - Variable 1.2 mph - N/A   Clear
12:50 PM 80.6 °F 30.2 °F 16% 30.21 in 6.2 mi Calm Calm - N/A   Scattered Clouds
1:50 PM 84.2 °F 30.2 °F 14% 30.18 in 6.2 mi Variable 2.3 mph - N/A   Scattered Clouds
2:50 PM 84.2 °F 32.0 °F 15% 30.15 in 6.2 mi South 3.5 mph - N/A   Scattered Clouds
3:00 PM 85 °F 31 °F 7%  in 12 mi South 3.5 mph - -   Partly Cloudy
3:50 PM 86.0 °F 33.8 °F 15% 30.15 in 6.2 mi SSE 4.6 mph - N/A   Scattered Clouds
4:50 PM 84.2 °F 39.2 °F 20% 30.15 in 6.2 mi Variable 1.2 mph - N/A   Scattered Clouds
5:50 PM 77.0 °F 42.8 °F 29% 30.15 in 6.2 mi SSE 3.5 mph - N/A   Scattered Clouds
6:50 PM 73.4 °F 41.0 °F 31% 30.15 in 6.2 mi ENE 2.3 mph - N/A   Scattered Clouds
8:50 PM 64.4 °F 41.0 °F 42% 30.15 in 6.2 mi Variable 2.3 mph - N/A   Scattered Clouds
9:00 PM 65 °F 40 °F 28%  in 6 mi WNW 2.3 mph - -   Scattered Clouds
9:50 PM 64.4 °F 41.0 °F 42% 30.18 in 6.2 mi Calm Calm - N/A   Scattered Clouds
10:50 PM 59.0 °F 41.0 °F 51% 30.15 in 6.2 mi Calm Calm - N/A   Scattered Clouds
11:50 PM 55.4 °F 41.0 °F 58% 30.18 in 6.2 mi WNW 3.5 mph - N/A   Scattered Clouds